Weather History for KITH - May, 2013

Change the Weather History Date:

Wednesday, May 29, 2013

  Actual Average Record
Temperature  
Mean Temperature 71 °F -  
Max Temperature 83 °F 71 °F 92 °F (1931)
Min Temperature 59 °F 47 °F 32 °F (2008)
Cooling Degree Days 6    
Growing Degree Days 21 (Base 50)    
Moisture  
Dew Point 62 °F    
Average Humidity 82    
Maximum Humidity 97    
Minimum Humidity 49    
Precipitation  
Precipitation 0.30 in - - ()
Sea Level Pressure  
Sea Level Pressure 30.01 in    
Wind  
Wind Speed 8 mph (South)    
Max Wind Speed 17 mph    
Max Gust Speed 20 mph    
Visibility 8 miles    
Events Rain , Thunderstorm    
Averages and records for this station are not official NWS values.
T = Trace of Precipitation, MM = Missing Value Source: NWS Daily Summary

Daily Weather History Graph

Daily Weather History Graph

Search for Another Location

Airport or City:

Trip Planner

Search our weather history database for the weather conditions in past years. The results will help you decide how hot, cold, wet, or windy it might be!

Date:

Astronomy

May. 29, 2013 Rise Set
Actual Time 5:32 AM EDT 8:34 PM EDT
Civil Twilight 4:58 AM EDT 9:08 PM EDT
Nautical Twilight 4:15 AM EDT 9:51 PM EDT
Astronomical Twilight 3:25 AM EDT 10:42 PM EDT
Moon No Moon Rise 10:32 AM EDT (5/29)
Length of Visible Light 16h 09m
Length of Day
15h 01m
Waning Gibbous, 73% of the Moon is Illuminated
May 29
Waning Gibbous
May 31
Last Quarter
Jun 8
New
Jun 16
First Quarter
Jun 23
Full

Hourly Weather History & Observations

Time (EDT) Temp. Heat Index Dew Point Humidity Pressure Visibility Wind Dir Wind Speed Gust Speed Precip Events Conditions
12:56 AM 59.0 °F - 56.8 °F 93% 30.03 in 10.0 mi South 10.4 mph - 0.06 in Rain Light Rain
1:56 AM 59.9 °F - 56.8 °F 90% 30.01 in 10.0 mi South 11.5 mph - 0.01 in   Overcast
2:56 AM 59.9 °F - 57.9 °F 93% 29.99 in 10.0 mi South 11.5 mph - N/A   Overcast
3:56 AM 61.0 °F - 59.0 °F 93% 30.01 in 10.0 mi South 8.1 mph - 0.00 in Rain Light Rain
4:56 AM 61.9 °F - 59.0 °F 90% 29.99 in 10.0 mi SSE 10.4 mph - 0.00 in   Mostly Cloudy
5:41 AM 62.6 °F - 60.8 °F 94% 30.00 in 9.0 mi South 4.6 mph - 0.01 in Rain , Thunderstorm Light Thunderstorms and Rain
5:56 AM 61.9 °F - 59.9 °F 93% 30.01 in 1.5 mi Variable 3.5 mph - 0.12 in Rain , Thunderstorm Heavy Thunderstorms and Rain
6:03 AM 62.6 °F - 60.8 °F 94% 30.01 in 1.2 mi SE 4.6 mph - 0.02 in Rain , Thunderstorm Light Thunderstorms and Rain
6:05 AM 62.6 °F - 60.8 °F 94% 30.01 in 2.0 mi ESE 4.6 mph - 0.04 in Rain , Thunderstorm Heavy Thunderstorms and Rain
6:10 AM 62.6 °F - 60.8 °F 94% 30.01 in 3.0 mi ESE 4.6 mph - 0.04 in Rain Light Rain
6:24 AM 62.6 °F - 60.8 °F 94% 30.01 in 10.0 mi SSE 3.5 mph - 0.04 in   Overcast
6:56 AM 63.0 °F - 61.0 °F 93% 30.02 in 10.0 mi South 9.2 mph - 0.05 in   Overcast
7:56 AM 64.9 °F - 61.0 °F 87% 30.04 in 10.0 mi Calm Calm - N/A   Mostly Cloudy
8:56 AM 63.9 °F - 61.0 °F 90% 30.04 in 10.0 mi South 5.8 mph - 0.02 in   Overcast
9:56 AM 70.0 °F - 63.0 °F 78% 30.03 in 10.0 mi SSE 5.8 mph - 0.00 in   Mostly Cloudy
10:56 AM 74.8 °F - 64.9 °F 71% 30.02 in 10.0 mi SW 6.9 mph - N/A   Scattered Clouds
11:56 AM 77.9 °F - 63.9 °F 62% 30.00 in 10.0 mi SW 11.5 mph - N/A   Mostly Cloudy
12:56 PM 81.0 °F 82.7 °F 64.9 °F 58% 30.01 in 10.0 mi WSW 12.7 mph - N/A   Mostly Cloudy
1:56 PM 81.9 °F 83.5 °F 64.9 °F 56% 30.00 in 10.0 mi West 10.4 mph 18.4 mph N/A   Scattered Clouds
2:56 PM 81.0 °F 82.7 °F 64.9 °F 58% 29.98 in 10.0 mi WSW 6.9 mph - N/A   Mostly Cloudy
3:56 PM 82.9 °F 84.2 °F 63.9 °F 52% 29.98 in 10.0 mi WSW 11.5 mph - N/A   Scattered Clouds
4:56 PM 82.9 °F 84.6 °F 64.9 °F 54% 29.96 in 10.0 mi SW 13.8 mph 18.4 mph N/A   Mostly Cloudy
5:56 PM 83.8 °F 84.7 °F 63.0 °F 49% 29.96 in 10.0 mi West 15.0 mph 19.6 mph N/A   Mostly Cloudy
6:56 PM 75.9 °F - 66.9 °F 74% 30.01 in 6.0 mi NW 17.3 mph - 0.03 in Rain Rain
7:56 PM 70.9 °F - 64.9 °F 81% 30.00 in 10.0 mi Calm Calm - 0.01 in   Mostly Cloudy
8:56 PM 66.9 °F - 64.9 °F 93% 30.01 in 10.0 mi Calm Calm - N/A   Mostly Cloudy
9:56 PM 64.9 °F - 63.9 °F 96% 30.04 in 4.0 mi ENE 3.5 mph - N/A   Scattered Clouds
10:56 PM 63.0 °F - 61.9 °F 96% 30.06 in 4.0 mi Calm Calm - N/A   Clear
11:56 PM 63.9 °F - 63.0 °F 97% 30.07 in 4.0 mi Calm Calm - N/A   Overcast